Location: ????????
(55.3155°N, 39.2900°E)
Time: 09:47:38
(UTC+00:00)

Cosmos 1371 Rocket - Pass Details

Date: 14 April 2024
Orbit: 751 x 787 km, 74.0° (Epoch: 27 May)

Event Time Altitude Azimuth Distance (km) Brightness Sun altitude
Rises 01:13:25 0° 330° (NNW) 3,231 7.3 -9.5°
Reaches altitude 10° 01:15:49 10° 326° (NW) 2,306 6.5 -9.2°
Maximum altitude 01:20:54 54° 250° (WSW) 927 4.1 -8.6°
Drops below altitude 10° 01:26:00 10° 174° (S) 2,314 6.3 -7.9°
Sets 01:28:25 0° 170° (S) 3,242 7.0 -7.6°
